Location: Cella
(44.7333°N, 10.5667°E)
Time: 23:10:57
(UTC+00:00)

Cosmos 1777 Rocket - Pass Details

Date: 24 June 2021
Orbit: 757 x 776 km, 74.0° (Epoch: 29 July)

Event Time Altitude Azimuth Distance (km) Brightness Sun altitude
Rises 20:44:58 0° 347° (NNW) 3,262 8.6 -13.2°
Reaches altitude 10° 20:47:42 10° 359° (N) 2,333 7.4 -13.5°
Maximum altitude 20:52:11 27° 57° (ENE) 1,459 5.4 -13.9°
Enters shadow 20:55:44 14° 108° (ESE) 2,048 5.8 -14.3°
